Time,TemperatureF,DewpointF,PressureIn,WindDirection,WindDirectionDegrees,WindSpeedMPH,WindSpeedGustMPH,Humidity,HourlyPrecipIn,Conditions,Clouds,dailyrainin,SoftwareType,DateUTC
2013-10-18 00:02:00,63.1,61.3,29.70,NE,38,3.0,6.0,94,0.00,,,0.00,Wunderground v.1.15,2013-10-18 04:02:00,
2013-10-18 00:04:00,63.0,61.2,29.70,North,356,3.0,6.0,94,0.00,,,0.00,Wunderground v.1.15,2013-10-18 04:04:00,
2013-10-18 00:08:00,63.0,61.2,29.70,NE,55,2.0,6.0,94,0.00,,,0.00,Wunderground v.1.15,2013-10-18 04:08:00,
2013-10-18 00:10:00,62.9,61.1,29.70,SE,129,2.0,6.0,94,0.00,,,0.00,Wunderground v.1.15,2013-10-18 04:10:00,
2013-10-18 00:12:00,62.9,61.4,29.70,ENE,77,2.0,6.0,95,0.00,,,0.00,Wunderground v.1.15,2013-10-18 04:12:00,
2013-10-18 00:16:00,62.9,61.4,29.70,West,280,3.0,6.0,95,0.00,,,0.00,Wunderground v.1.15,2013-10-18 04:16:00,
2013-10-18 00:22:00,63.0,61.5,29.71,SW,236,3.0,3.0,95,0.00,,,0.00,Wunderground v.1.15,2013-10-18 04:22:00,
2013-10-18 00:28:00,63.1,61.6,29.70,NNE,25,3.0,7.0,95,0.00,,,0.00,Wunderground v.1.15,2013-10-18 04:28:00,
2013-10-18 00:34:00,63.1,61.6,29.70,NNE,15,3.0,3.0,95,0.00,,,0.00,Wunderground v.1.15,2013-10-18 04:34:00,
2013-10-18 00:40:00,63.1,61.6,29.70,ESE,103,3.0,3.0,95,0.00,,,0.00,Wunderground v.1.15,2013-10-18 04:40:00,
2013-10-18 00:46:00,63.1,61.6,29.70,SE,144,3.0,7.0,95,0.00,,,0.01,Wunderground v.1.15,2013-10-18 04:46:00,
2013-10-18 00:52:00,63.1,61.6,29.70,ENE,65,3.0,3.0,95,0.00,,,0.01,Wunderground v.1.15,2013-10-18 04:52:00,
2013-10-18 00:58:00,63.1,61.6,29.70,ENE,63,3.0,3.0,95,0.00,,,0.01,Wunderground v.1.15,2013-10-18 04:58:00,
2013-10-18 01:04:00,63.2,61.7,29.70,East,99,2.0,9.0,95,0.00,,,0.01,Wunderground v.1.15,2013-10-18 05:04:00,
2013-10-18 01:10:00,63.2,61.7,29.70,NNW,328,3.0,4.0,95,0.00,,,0.01,Wunderground v.1.15,2013-10-18 05:10:00,
2013-10-18 01:16:00,63.3,61.8,29.70,NNE,27,3.0,9.0,95,0.00,,,0.01,Wunderground v.1.15,2013-10-18 05:16:00,
2013-10-18 01:22:00,63.3,61.8,29.70,NE,53,2.0,3.0,95,0.00,,,0.01,Wunderground v.1.15,2013-10-18 05:22:00,
2013-10-18 01:28:00,63.4,61.9,29.70,NW,321,2.0,3.0,95,0.00,,,0.01,Wunderground v.1.15,2013-10-18 05:28:00,
2013-10-18 01:34:00,63.5,61.7,29.70,NE,38,2.0,4.0,94,0.00,,,0.01,Wunderground v.1.15,2013-10-18 05:34:00,
2013-10-18 01:40:00,63.5,61.7,29.70,NNE,33,2.0,3.0,94,0.00,,,0.01,Wunderground v.1.15,2013-10-18 05:40:00,
2013-10-18 01:46:00,63.5,61.7,29.71,NE,54,1.0,3.0,94,0.00,,,0.01,Wunderground v.1.15,2013-10-18 05:46:00,
2013-10-18 01:52:00,63.5,61.7,29.71,NE,42,1.0,2.0,94,0.00,,,0.01,Wunderground v.1.15,2013-10-18 05:52:00,
2013-10-18 01:58:00,63.4,61.6,29.71,ENE,77,1.0,2.0,94,0.00,,,0.01,Wunderground v.1.15,2013-10-18 05:58:00,
2013-10-18 02:04:00,63.3,61.2,29.71,SE,146,1.0,12.0,93,0.00,,,0.01,Wunderground v.1.15,2013-10-18 06:04:00,
2013-10-18 02:10:00,63.2,61.1,29.71,ESE,120,1.0,1.0,93,0.00,,,0.01,Wunderground v.1.15,2013-10-18 06:10:00,
2013-10-18 02:16:00,63.2,61.1,29.71,SE,140,1.0,4.0,93,0.00,,,0.01,Wunderground v.1.15,2013-10-18 06:16:00,
2013-10-18 02:22:00,63.5,60.8,29.72,East,84,2.0,2.0,91,0.00,,,0.01,Wunderground v.1.15,2013-10-18 06:22:00,
2013-10-18 02:28:00,63.6,60.6,29.72,WNW,288,2.0,2.0,90,0.00,,,0.01,Wunderground v.1.15,2013-10-18 06:28:00,
2013-10-18 02:34:00,63.5,59.9,29.72,NNE,15,1.0,2.0,88,0.00,,,0.01,Wunderground v.1.15,2013-10-18 06:34:00,
2013-10-18 02:40:00,63.6,59.3,29.72,NW,322,2.0,2.0,86,0.00,,,0.01,Wunderground v.1.15,2013-10-18 06:40:00,
2013-10-18 02:46:00,63.4,58.1,29.72,WSW,248,2.0,8.0,83,0.00,,,0.01,Wunderground v.1.15,2013-10-18 06:46:00,
2013-10-18 02:52:00,63.4,58.1,29.72,SE,125,3.0,4.0,83,0.00,,,0.01,Wunderground v.1.15,2013-10-18 06:52:00,
2013-10-18 02:58:00,63.0,57.8,29.73,NNW,331,2.0,8.0,83,0.00,,,0.01,Wunderground v.1.15,2013-10-18 06:58:00,
2013-10-18 03:04:00,62.4,56.1,29.73,West,279,3.0,8.0,80,0.00,,,0.01,Wunderground v.1.15,2013-10-18 07:04:00,
2013-10-18 03:10:00,61.8,55.9,29.73,NNW,344,2.0,2.0,81,0.00,,,0.01,Wunderground v.1.15,2013-10-18 07:10:00,
2013-10-18 03:16:00,61.3,55.4,29.73,WSW,246,3.0,6.0,81,0.00,,,0.01,Wunderground v.1.15,2013-10-18 07:16:00,
2013-10-18 03:22:00,60.9,55.0,29.73,WNW,292,2.0,3.0,81,0.00,,,0.01,Wunderground v.1.15,2013-10-18 07:22:00,
2013-10-18 03:28:00,60.5,55.0,29.74,West,271,1.0,3.0,82,0.00,,,0.01,Wunderground v.1.15,2013-10-18 07:28:00,
2013-10-18 03:34:00,60.1,54.9,29.75,WSW,239,2.0,4.0,83,0.00,,,0.01,Wunderground v.1.15,2013-10-18 07:34:00,
2013-10-18 03:40:00,59.7,54.5,29.75,North,6,2.0,3.0,83,0.00,,,0.01,Wunderground v.1.15,2013-10-18 07:40:00,
2013-10-18 03:46:00,59.3,54.5,29.75,NW,321,1.0,3.0,84,0.00,,,0.01,Wunderground v.1.15,2013-10-18 07:46:00,
2013-10-18 03:52:00,58.9,54.1,29.76,NNE,33,1.0,1.0,84,0.00,,,0.01,Wunderground v.1.15,2013-10-18 07:52:00,
2013-10-18 03:58:00,58.8,53.6,29.76,WSW,239,1.0,4.0,83,0.00,,,0.01,Wunderground v.1.15,2013-10-18 07:58:00,
2013-10-18 04:04:00,58.5,53.7,29.76,WNW,288,2.0,10.0,84,0.00,,,0.01,Wunderground v.1.15,2013-10-18 08:04:00,
2013-10-18 04:10:00,58.3,53.2,29.76,West,270,2.0,12.0,83,0.00,,,0.01,Wunderground v.1.15,2013-10-18 08:10:00,
2013-10-18 04:16:00,58.2,53.1,29.76,West,273,3.0,12.0,83,0.00,,,0.01,Wunderground v.1.15,2013-10-18 08:16:00,
2013-10-18 04:22:00,57.9,52.8,29.77,NE,37,2.0,2.0,83,0.00,,,0.01,Wunderground v.1.15,2013-10-18 08:22:00,
2013-10-18 04:28:00,57.8,52.7,29.77,West,260,2.0,5.0,83,0.00,,,0.01,Wunderground v.1.15,2013-10-18 08:28:00,
2013-10-18 04:34:00,57.6,52.1,29.77,North,359,2.0,4.0,82,0.00,,,0.01,Wunderground v.1.15,2013-10-18 08:34:00,
2013-10-18 04:40:00,57.8,52.0,29.77,WNW,286,3.0,3.0,81,0.00,,,0.01,Wunderground v.1.15,2013-10-18 08:40:00,
2013-10-18 04:46:00,57.6,51.8,29.77,West,281,3.0,5.0,81,0.00,,,0.01,Wunderground v.1.15,2013-10-18 08:46:00,
2013-10-18 04:52:00,57.6,51.8,29.78,North,355,2.0,2.0,81,0.00,,,0.01,Wunderground v.1.15,2013-10-18 08:52:00,
2013-10-18 04:58:00,57.4,51.6,29.78,ESE,113,2.0,3.0,81,0.00,,,0.01,Wunderground v.1.15,2013-10-18 08:58:00,
2013-10-18 05:04:00,57.3,51.5,29.77,SW,229,2.0,9.0,81,0.00,,,0.01,Wunderground v.1.15,2013-10-18 09:04:00,
2013-10-18 05:10:00,57.2,51.4,29.77,WSW,240,2.0,4.0,81,0.00,,,0.01,Wunderground v.1.15,2013-10-18 09:10:00,
2013-10-18 05:16:00,57.4,51.3,29.78,West,262,3.0,5.0,80,0.00,,,0.01,Wunderground v.1.15,2013-10-18 09:16:00,
2013-10-18 05:22:00,57.3,51.2,29.78,WNW,286,2.0,3.0,80,0.00,,,0.01,Wunderground v.1.15,2013-10-18 09:22:00,
2013-10-18 05:28:00,57.2,51.1,29.78,West,264,2.0,3.0,80,0.00,,,0.01,Wunderground v.1.15,2013-10-18 09:28:00,
2013-10-18 05:34:00,57.4,50.9,29.79,WNW,291,2.0,5.0,79,0.00,,,0.01,Wunderground v.1.15,2013-10-18 09:34:00,
2013-10-18 05:40:00,57.3,50.8,29.79,NNW,342,2.0,2.0,79,0.00,,,0.01,Wunderground v.1.15,2013-10-18 09:40:00,
2013-10-18 05:46:00,57.1,50.6,29.79,NW,311,2.0,3.0,79,0.00,,,0.01,Wunderground v.1.15,2013-10-18 09:46:00,
2013-10-18 05:52:00,57.0,50.5,29.79,NW,321,2.0,2.0,79,0.00,,,0.01,Wunderground v.1.15,2013-10-18 09:52:00,
2013-10-18 05:58:00,56.8,50.7,29.79,NNE,31,2.0,3.0,80,0.00,,,0.01,Wunderground v.1.15,2013-10-18 09:58:00,
2013-10-18 06:04:00,56.8,50.7,29.80,NW,320,3.0,11.0,80,0.00,,,0.01,Wunderground v.1.15,2013-10-18 10:04:00,
2013-10-18 06:10:00,56.8,50.7,29.80,WSW,250,2.0,3.0,80,0.00,,,0.01,Wunderground v.1.15,2013-10-18 10:10:00,
2013-10-18 06:16:00,56.6,50.5,29.80,NNW,342,2.0,3.0,80,0.00,,,0.01,Wunderground v.1.15,2013-10-18 10:16:00,
2013-10-18 06:22:00,56.6,50.5,29.80,WNW,286,2.0,3.0,80,0.00,,,0.01,Wunderground v.1.15,2013-10-18 10:22:00,
2013-10-18 06:28:00,56.6,50.5,29.80,West,266,2.0,3.0,80,0.00,,,0.01,Wunderground v.1.15,2013-10-18 10:28:00,
2013-10-18 06:34:00,56.4,50.6,29.80,West,276,2.0,3.0,81,0.00,,,0.01,Wunderground v.1.15,2013-10-18 10:34:00,
2013-10-18 06:40:00,56.2,50.1,29.81,WSW,257,2.0,2.0,80,0.00,,,0.01,Wunderground v.1.15,2013-10-18 10:40:00,
2013-10-18 06:46:00,56.1,50.0,29.81,WSW,240,2.0,4.0,80,0.00,,,0.01,Wunderground v.1.15,2013-10-18 10:46:00,
2013-10-18 06:52:00,56.0,49.6,29.81,WNW,284,2.0,3.0,79,0.00,,,0.01,Wunderground v.1.15,2013-10-18 10:52:00,
2013-10-18 06:58:00,55.9,49.5,29.81,WSW,237,2.0,7.0,79,0.00,,,0.01,Wunderground v.1.15,2013-10-18 10:58:00,
2013-10-18 07:04:00,55.8,49.4,29.82,NNE,28,3.0,11.0,79,0.00,,,0.01,Wunderground v.1.15,2013-10-18 11:04:00,
2013-10-18 07:10:00,55.7,49.3,29.82,NW,314,2.0,4.0,79,0.00,,,0.01,Wunderground v.1.15,2013-10-18 11:10:00,
2013-10-18 07:16:00,55.7,48.9,29.83,West,267,2.0,4.0,78,0.00,,,0.01,Wunderground v.1.15,2013-10-18 11:16:00,
2013-10-18 07:22:00,55.7,48.9,29.83,NNW,344,2.0,2.0,78,0.00,,,0.01,Wunderground v.1.15,2013-10-18 11:22:00,
2013-10-18 07:28:00,55.5,48.8,29.83,North,9,2.0,4.0,78,0.00,,,0.01,Wunderground v.1.15,2013-10-18 11:28:00,
2013-10-18 07:34:00,55.3,48.6,29.84,East,95,2.0,4.0,78,0.00,,,0.01,Wunderground v.1.15,2013-10-18 11:34:00,
2013-10-18 07:40:00,55.4,48.3,29.84,North,359,2.0,2.0,77,0.00,,,0.01,Wunderground v.1.15,2013-10-18 11:40:00,
2013-10-18 07:46:00,55.3,48.6,29.84,NE,34,2.0,3.0,78,0.00,,,0.01,Wunderground v.1.15,2013-10-18 11:46:00,
2013-10-18 07:52:00,55.3,48.6,29.84,West,259,2.0,5.0,78,0.00,,,0.01,Wunderground v.1.15,2013-10-18 11:52:00,
2013-10-18 07:58:00,55.2,48.5,29.85,NW,304,2.0,5.0,78,0.00,,,0.01,Wunderground v.1.15,2013-10-18 11:58:00,
2013-10-18 08:04:00,55.2,48.1,29.85,SW,221,2.0,12.0,77,0.00,,,0.01,Wunderground v.1.15,2013-10-18 12:04:00,
2013-10-18 08:10:00,55.2,48.1,29.85,SE,127,2.0,2.0,77,0.00,,,0.01,Wunderground v.1.15,2013-10-18 12:10:00,
2013-10-18 08:16:00,55.1,48.0,29.85,ESE,107,1.0,2.0,77,0.00,,,0.01,Wunderground v.1.15,2013-10-18 12:16:00,
2013-10-18 08:22:00,55.0,47.9,29.86,West,259,1.0,5.0,77,0.00,,,0.01,Wunderground v.1.15,2013-10-18 12:22:00,
2013-10-18 08:28:00,55.1,47.3,29.87,West,278,2.0,5.0,75,0.00,,,0.01,Wunderground v.1.15,2013-10-18 12:28:00,
2013-10-18 08:34:00,55.2,47.1,29.87,WNW,293,2.0,3.0,74,0.00,,,0.01,Wunderground v.1.15,2013-10-18 12:34:00,
2013-10-18 08:40:00,55.4,46.5,29.87,SW,235,3.0,3.0,72,0.00,,,0.01,Wunderground v.1.15,2013-10-18 12:40:00,
2013-10-18 08:46:00,55.5,46.6,29.87,WNW,289,3.0,4.0,72,0.00,,,0.01,Wunderground v.1.15,2013-10-18 12:46:00,
2013-10-18 08:52:00,55.5,47.0,29.88,West,278,3.0,3.0,73,0.00,,,0.01,Wunderground v.1.15,2013-10-18 12:52:00,
2013-10-18 08:58:00,55.4,46.2,29.89,NW,305,2.0,3.0,71,0.00,,,0.01,Wunderground v.1.15,2013-10-18 12:58:00,
2013-10-18 09:04:00,55.3,46.1,29.88,East,91,2.0,9.0,71,0.00,,,0.01,Wunderground v.1.15,2013-10-18 13:04:00,
2013-10-18 09:10:00,55.4,46.2,29.89,NNE,28,2.0,4.0,71,0.00,,,0.01,Wunderground v.1.15,2013-10-18 13:10:00,
2013-10-18 09:16:00,55.7,45.7,29.89,WNW,282,3.0,4.0,69,0.00,,,0.01,Wunderground v.1.15,2013-10-18 13:16:00,
2013-10-18 09:22:00,55.6,46.3,29.89,NW,311,2.0,3.0,71,0.00,,,0.01,Wunderground v.1.15,2013-10-18 13:22:00,
2013-10-18 09:28:00,56.1,46.4,29.89,NW,323,2.0,3.0,70,0.00,,,0.01,Wunderground v.1.15,2013-10-18 13:28:00,
2013-10-18 09:34:00,56.3,46.6,29.90,North,356,2.0,3.0,70,0.00,,,0.01,Wunderground v.1.15,2013-10-18 13:34:00,
2013-10-18 09:40:00,56.5,46.4,29.89,NW,316,1.0,1.0,69,0.00,,,0.01,Wunderground v.1.15,2013-10-18 13:40:00,
2013-10-18 09:46:00,56.6,46.5,29.90,WNW,285,2.0,2.0,69,0.00,,,0.01,Wunderground v.1.15,2013-10-18 13:46:00,
2013-10-18 09:52:00,56.8,46.7,29.90,WNW,292,2.0,2.0,69,0.00,,,0.01,Wunderground v.1.15,2013-10-18 13:52:00,
2013-10-18 09:58:00,56.9,46.8,29.90,WNW,292,2.0,8.0,69,0.00,,,0.01,Wunderground v.1.15,2013-10-18 13:58:00,
2013-10-18 10:06:00,57.2,47.1,29.90,NW,318,2.0,10.0,69,0.00,,,0.01,Wunderground v.1.15,2013-10-18 14:06:00,
2013-10-18 10:12:00,57.3,46.8,29.90,NNW,328,3.0,3.0,68,0.00,,,0.01,Wunderground v.1.15,2013-10-18 14:12:00,
2013-10-18 10:18:00,57.5,47.4,29.90,West,277,2.0,3.0,69,0.00,,,0.01,Wunderground v.1.15,2013-10-18 14:18:00,
2013-10-18 10:24:00,57.5,46.6,29.90,WNW,283,2.0,2.0,67,0.00,,,0.01,Wunderground v.1.15,2013-10-18 14:24:00,
2013-10-18 10:30:00,57.6,46.3,29.91,WSW,250,3.0,6.0,66,0.00,,,0.01,Wunderground v.1.15,2013-10-18 14:30:00,
2013-10-18 10:36:00,57.5,46.2,29.91,WSW,257,3.0,6.0,66,0.00,,,0.01,Wunderground v.1.15,2013-10-18 14:36:00,
2013-10-18 10:42:00,57.7,46.4,29.91,WNW,285,2.0,3.0,66,0.00,,,0.01,Wunderground v.1.15,2013-10-18 14:42:00,
2013-10-18 10:48:00,57.7,46.4,29.91,North,4,2.0,5.0,66,0.00,,,0.01,Wunderground v.1.15,2013-10-18 14:48:00,
2013-10-18 10:54:00,58.0,47.1,29.91,SW,229,2.0,4.0,67,0.00,,,0.01,Wunderground v.1.15,2013-10-18 14:54:00,
2013-10-18 11:00:00,58.2,46.5,29.91,SW,215,2.0,2.0,65,0.00,,,0.01,Wunderground v.1.15,2013-10-18 15:00:00,
2013-10-18 11:06:00,58.5,46.8,29.91,WNW,297,2.0,13.0,65,0.00,,,0.01,Wunderground v.1.15,2013-10-18 15:06:00,
2013-10-18 11:12:00,58.7,47.0,29.91,NW,319,2.0,2.0,65,0.00,,,0.01,Wunderground v.1.15,2013-10-18 15:12:00,
2013-10-18 11:18:00,59.0,46.4,29.91,SW,229,2.0,5.0,63,0.00,,,0.01,Wunderground v.1.15,2013-10-18 15:18:00,
2013-10-18 11:24:00,58.9,46.3,29.92,NW,323,2.0,3.0,63,0.00,,,0.01,Wunderground v.1.15,2013-10-18 15:24:00,
2013-10-18 11:30:00,59.3,47.5,29.92,East,84,1.0,2.0,65,0.00,,,0.01,Wunderground v.1.15,2013-10-18 15:30:00,
2013-10-18 11:36:00,59.4,46.8,29.91,WSW,248,2.0,3.0,63,0.00,,,0.01,Wunderground v.1.15,2013-10-18 15:36:00,
2013-10-18 11:42:00,59.4,46.8,29.91,North,359,3.0,3.0,63,0.00,,,0.01,Wunderground v.1.15,2013-10-18 15:42:00,
2013-10-18 11:48:00,59.6,47.0,29.91,WNW,283,2.0,3.0,63,0.00,,,0.01,Wunderground v.1.15,2013-10-18 15:48:00,
2013-10-18 11:54:00,59.6,46.6,29.92,WNW,283,2.0,2.0,62,0.00,,,0.01,Wunderground v.1.15,2013-10-18 15:54:00,
2013-10-18 12:02:00,59.9,46.4,29.92,WNW,283,2.0,8.0,61,0.00,,,0.01,Wunderground v.1.15,2013-10-18 16:02:00,
2013-10-18 12:08:00,59.9,46.4,29.92,WNW,283,2.0,8.0,61,0.00,,,0.01,Wunderground v.1.15,2013-10-18 16:08:00,
2013-10-18 12:14:00,60.2,47.1,29.92,NNW,342,2.0,5.0,62,0.00,,,0.01,Wunderground v.1.15,2013-10-18 16:14:00,
2013-10-18 12:20:00,60.7,47.6,29.91,NW,304,2.0,2.0,62,0.00,,,0.01,Wunderground v.1.15,2013-10-18 16:20:00,
2013-10-18 12:26:00,61.4,46.9,29.91,NE,43,2.0,4.0,59,0.00,,,0.01,Wunderground v.1.15,2013-10-18 16:26:00,
2013-10-18 12:32:00,62.0,46.6,29.91,West,259,2.0,2.0,57,0.00,,,0.01,Wunderground v.1.15,2013-10-18 16:32:00,
2013-10-18 12:38:00,62.0,46.1,29.91,NNW,328,3.0,10.0,56,0.00,,,0.01,Wunderground v.1.15,2013-10-18 16:38:00,
2013-10-18 12:44:00,62.3,47.3,29.91,West,281,3.0,3.0,58,0.00,,,0.01,Wunderground v.1.15,2013-10-18 16:44:00,
2013-10-18 12:50:00,62.0,46.6,29.91,NE,44,3.0,3.0,57,0.00,,,0.01,Wunderground v.1.15,2013-10-18 16:50:00,
2013-10-18 12:56:00,62.6,46.2,29.90,NNW,335,3.0,3.0,55,0.00,,,0.01,Wunderground v.1.15,2013-10-18 16:56:00,
2013-10-18 13:02:00,62.6,46.7,29.90,North,9,3.0,8.0,56,0.00,,,0.01,Wunderground v.1.15,2013-10-18 17:02:00,
2013-10-18 13:08:00,62.6,45.2,29.90,NW,307,3.0,8.0,53,0.00,,,0.01,Wunderground v.1.15,2013-10-18 17:08:00,
2013-10-18 13:14:00,62.8,45.4,29.90,North,9,2.0,3.0,53,0.00,,,0.01,Wunderground v.1.15,2013-10-18 17:14:00,
2013-10-18 13:20:00,62.9,45.5,29.90,NW,323,2.0,3.0,53,0.00,,,0.01,Wunderground v.1.15,2013-10-18 17:20:00,
2013-10-18 13:26:00,62.6,45.2,29.90,WNW,290,3.0,3.0,53,0.00,,,0.01,Wunderground v.1.15,2013-10-18 17:26:00,
2013-10-18 13:32:00,63.0,45.6,29.90,East,84,2.0,5.0,53,0.00,,,0.01,Wunderground v.1.15,2013-10-18 17:32:00,
2013-10-18 13:38:00,63.3,45.4,29.90,NNE,13,2.0,5.0,52,0.00,,,0.01,Wunderground v.1.15,2013-10-18 17:38:00,
2013-10-18 13:44:00,63.2,44.8,29.90,West,269,3.0,3.0,51,0.00,,,0.01,Wunderground v.1.15,2013-10-18 17:44:00,
2013-10-18 13:50:00,63.8,44.8,29.90,SSW,202,2.0,5.0,50,0.00,,,0.01,Wunderground v.1.15,2013-10-18 17:50:00,
2013-10-18 13:56:00,63.6,43.5,29.90,WSW,256,3.0,5.0,48,0.00,,,0.01,Wunderground v.1.15,2013-10-18 17:56:00,
2013-10-18 14:02:00,64.0,44.4,29.90,NW,322,3.0,14.0,49,0.00,,,0.01,Wunderground v.1.15,2013-10-18 18:02:00,
2013-10-18 14:08:00,63.9,43.3,29.90,NE,51,2.0,14.0,47,0.00,,,0.01,Wunderground v.1.15,2013-10-18 18:08:00,
2013-10-18 14:14:00,64.1,45.6,29.90,NE,46,2.0,2.0,51,0.00,,,0.01,Wunderground v.1.15,2013-10-18 18:14:00,
2013-10-18 14:20:00,64.5,43.3,29.90,SW,236,2.0,2.0,46,0.00,,,0.01,Wunderground v.1.15,2013-10-18 18:20:00,
2013-10-18 14:26:00,64.5,44.4,29.90,WNW,284,2.0,3.0,48,0.00,,,0.01,Wunderground v.1.15,2013-10-18 18:26:00,
2013-10-18 14:32:00,64.2,43.0,29.90,WNW,285,2.0,2.0,46,0.00,,,0.01,Wunderground v.1.15,2013-10-18 18:32:00,
2013-10-18 14:38:00,64.3,43.1,29.89,WNW,293,3.0,3.0,46,0.00,,,0.01,Wunderground v.1.15,2013-10-18 18:38:00,
2013-10-18 14:44:00,64.5,43.3,29.90,SW,224,2.0,4.0,46,0.00,,,0.01,Wunderground v.1.15,2013-10-18 18:44:00,
2013-10-18 14:50:00,64.5,43.8,29.90,NNE,18,2.0,2.0,47,0.00,,,0.01,Wunderground v.1.15,2013-10-18 18:50:00,
2013-10-18 14:56:00,64.3,44.2,29.90,NW,309,2.0,2.0,48,0.00,,,0.01,Wunderground v.1.15,2013-10-18 18:56:00,
2013-10-18 15:02:00,64.7,43.4,29.90,NW,311,2.0,3.0,46,0.00,,,0.01,Wunderground v.1.15,2013-10-18 19:02:00,
2013-10-18 15:08:00,65.0,43.1,29.90,West,279,2.0,13.0,45,0.00,,,0.01,Wunderground v.1.15,2013-10-18 19:08:00,
2013-10-18 15:14:00,64.4,42.6,29.90,WNW,291,3.0,4.0,45,0.00,,,0.01,Wunderground v.1.15,2013-10-18 19:14:00,
2013-10-18 15:20:00,64.7,42.9,29.90,NW,313,3.0,3.0,45,0.00,,,0.01,Wunderground v.1.15,2013-10-18 19:20:00,
2013-10-18 15:26:00,64.7,42.3,29.90,NW,311,2.0,3.0,44,0.00,,,0.01,Wunderground v.1.15,2013-10-18 19:26:00,
2013-10-18 15:32:00,64.8,41.2,29.90,West,259,2.0,2.0,42,0.00,,,0.01,Wunderground v.1.15,2013-10-18 19:32:00,
2013-10-18 15:38:00,64.7,42.3,29.90,NW,309,2.0,2.0,44,0.00,,,0.01,Wunderground v.1.15,2013-10-18 19:38:00,
2013-10-18 15:44:00,64.9,42.5,29.90,WSW,255,2.0,3.0,44,0.00,,,0.01,Wunderground v.1.15,2013-10-18 19:44:00,
2013-10-18 15:50:00,64.8,42.9,29.90,East,99,2.0,2.0,45,0.00,,,0.01,Wunderground v.1.15,2013-10-18 19:50:00,
2013-10-18 15:56:00,64.8,42.9,29.90,North,2,2.0,2.0,45,0.00,,,0.01,Wunderground v.1.15,2013-10-18 19:56:00,
2013-10-18 16:02:00,64.6,42.2,29.90,NW,304,2.0,11.0,44,0.00,,,0.01,Wunderground v.1.15,2013-10-18 20:02:00,
2013-10-18 16:08:00,64.6,41.6,29.90,NW,311,2.0,11.0,43,0.00,,,0.01,Wunderground v.1.15,2013-10-18 20:08:00,
2013-10-18 16:14:00,64.6,43.9,29.90,NW,309,2.0,2.0,47,0.00,,,0.01,Wunderground v.1.15,2013-10-18 20:14:00,
2013-10-18 16:20:00,64.7,42.9,29.90,West,281,1.0,1.0,45,0.00,,,0.01,Wunderground v.1.15,2013-10-18 20:20:00,
2013-10-18 16:26:00,64.5,42.1,29.90,WNW,286,1.0,3.0,44,0.00,,,0.01,Wunderground v.1.15,2013-10-18 20:26:00,
2013-10-18 16:32:00,64.4,42.6,29.90,North,352,2.0,2.0,45,0.00,,,0.01,Wunderground v.1.15,2013-10-18 20:32:00,
2013-10-18 16:38:00,64.3,41.9,29.90,West,267,2.0,4.0,44,0.00,,,0.01,Wunderground v.1.15,2013-10-18 20:38:00,
2013-10-18 16:44:00,64.0,42.8,29.90,NNW,333,1.0,2.0,46,0.00,,,0.01,Wunderground v.1.15,2013-10-18 20:44:00,
2013-10-18 16:50:00,63.5,42.3,29.90,WNW,302,2.0,2.0,46,0.00,,,0.01,Wunderground v.1.15,2013-10-18 20:50:00,
2013-10-18 16:56:00,63.5,42.3,29.90,WNW,283,2.0,2.0,46,0.00,,,0.01,Wunderground v.1.15,2013-10-18 20:56:00,
2013-10-18 17:02:00,63.3,42.2,29.90,West,265,2.0,9.0,46,0.00,,,0.01,Wunderground v.1.15,2013-10-18 21:02:00,
2013-10-18 17:08:00,63.1,42.5,29.90,WNW,301,2.0,9.0,47,0.00,,,0.01,Wunderground v.1.15,2013-10-18 21:08:00,
2013-10-18 17:14:00,62.6,42.1,29.91,SW,229,1.0,1.0,47,0.00,,,0.01,Wunderground v.1.15,2013-10-18 21:14:00,
2013-10-18 17:20:00,62.1,42.7,29.91,NE,39,1.0,1.0,49,0.00,,,0.01,Wunderground v.1.15,2013-10-18 21:20:00,
2013-10-18 17:26:00,61.7,42.3,29.91,WNW,295,1.0,4.0,49,0.00,,,0.01,Wunderground v.1.15,2013-10-18 21:26:00,
2013-10-18 17:32:00,61.3,43.5,29.91,ESE,122,1.0,2.0,52,0.00,,,0.01,Wunderground v.1.15,2013-10-18 21:32:00,
2013-10-18 17:38:00,60.8,42.5,29.92,NW,306,1.0,2.0,51,0.00,,,0.01,Wunderground v.1.15,2013-10-18 21:38:00,
2013-10-18 17:44:00,60.5,41.8,29.92,NW,304,1.0,1.0,50,0.00,,,0.01,Wunderground v.1.15,2013-10-18 21:44:00,
2013-10-18 17:50:00,60.3,42.1,29.92,NNE,28,1.0,2.0,51,0.00,,,0.01,Wunderground v.1.15,2013-10-18 21:50:00,
2013-10-18 17:56:00,60.3,41.6,29.93,NNE,21,1.0,3.0,50,0.00,,,0.01,Wunderground v.1.15,2013-10-18 21:56:00,
2013-10-18 18:02:00,59.9,41.7,29.93,SSW,212,1.0,8.0,51,0.00,,,0.01,Wunderground v.1.15,2013-10-18 22:02:00,
2013-10-18 18:08:00,59.9,41.2,29.93,SSW,213,1.0,8.0,50,0.00,,,0.01,Wunderground v.1.15,2013-10-18 22:08:00,
2013-10-18 18:14:00,59.8,41.6,29.93,SSE,160,1.0,2.0,51,0.00,,,0.01,Wunderground v.1.15,2013-10-18 22:14:00,
2013-10-18 18:20:00,59.7,41.0,29.93,WSW,251,1.0,1.0,50,0.00,,,0.01,Wunderground v.1.15,2013-10-18 22:20:00,
2013-10-18 18:26:00,59.3,41.2,29.94,WSW,257,1.0,1.0,51,0.00,,,0.01,Wunderground v.1.15,2013-10-18 22:26:00,
2013-10-18 18:32:00,59.0,41.4,29.94,North,1,0.0,1.0,52,0.00,,,0.01,Wunderground v.1.15,2013-10-18 22:32:00,
2013-10-18 18:38:00,58.8,41.2,29.95,NW,310,1.0,1.0,52,0.00,,,0.01,Wunderground v.1.15,2013-10-18 22:38:00,
2013-10-18 18:44:00,58.7,41.1,29.95,NNW,342,1.0,1.0,52,0.00,,,0.01,Wunderground v.1.15,2013-10-18 22:44:00,
2013-10-18 18:50:00,58.5,40.9,29.95,SSW,207,1.0,1.0,52,0.00,,,0.01,Wunderground v.1.15,2013-10-18 22:50:00,
2013-10-18 18:56:00,58.3,40.7,29.95,SE,134,0.0,1.0,52,0.00,,,0.01,Wunderground v.1.15,2013-10-18 22:56:00,
2013-10-18 19:02:00,58.1,41.0,29.95,SSE,154,0.0,7.0,53,0.00,,,0.01,Wunderground v.1.15,2013-10-18 23:02:00,
2013-10-18 19:08:00,58.4,40.3,29.95,West,262,1.0,7.0,51,0.00,,,0.01,Wunderground v.1.15,2013-10-18 23:08:00,
2013-10-18 19:14:00,58.5,40.4,29.96,North,349,1.0,2.0,51,0.00,,,0.01,Wunderground v.1.15,2013-10-18 23:14:00,
2013-10-18 19:20:00,58.4,39.8,29.96,NW,326,1.0,2.0,50,0.00,,,0.01,Wunderground v.1.15,2013-10-18 23:20:00,
2013-10-18 19:26:00,58.6,40.0,29.96,SW,230,1.0,2.0,50,0.00,,,0.01,Wunderground v.1.15,2013-10-18 23:26:00,
2013-10-18 19:32:00,58.4,40.3,29.96,East,94,1.0,2.0,51,0.00,,,0.01,Wunderground v.1.15,2013-10-18 23:32:00,
2013-10-18 19:38:00,58.5,39.9,29.97,WNW,285,1.0,2.0,50,0.00,,,0.01,Wunderground v.1.15,2013-10-18 23:38:00,
2013-10-18 19:44:00,58.6,40.0,29.97,ENE,67,1.0,1.0,50,0.00,,,0.01,Wunderground v.1.15,2013-10-18 23:44:00,
2013-10-18 19:50:00,58.1,41.0,29.97,ENE,68,0.0,0.0,53,0.00,,,0.01,Wunderground v.1.15,2013-10-18 23:50:00,
2013-10-18 19:56:00,58.1,40.6,29.97,SW,226,1.0,1.0,52,0.00,,,0.01,Wunderground v.1.15,2013-10-18 23:56:00,
2013-10-18 20:02:00,58.1,41.0,29.98,NW,304,1.0,3.0,53,0.00,,,0.01,Wunderground v.1.15,2013-10-19 00:02:00,
2013-10-18 20:08:00,58.0,40.5,29.98,NNW,348,1.0,3.0,52,0.00,,,0.01,Wunderground v.1.15,2013-10-19 00:08:00,
2013-10-18 20:14:00,57.8,40.8,29.98,West,278,1.0,2.0,53,0.00,,,0.01,Wunderground v.1.15,2013-10-19 00:14:00,
2013-10-18 20:20:00,57.5,40.5,29.99,West,262,1.0,1.0,53,0.00,,,0.01,Wunderground v.1.15,2013-10-19 00:20:00,
2013-10-18 20:26:00,57.3,40.8,29.99,SW,234,0.0,4.0,54,0.00,,,0.01,Wunderground v.1.15,2013-10-19 00:26:00,
2013-10-18 20:32:00,57.4,40.4,29.99,WSW,257,1.0,1.0,53,0.00,,,0.01,Wunderground v.1.15,2013-10-19 00:32:00,
2013-10-18 20:38:00,57.3,40.8,29.99,West,278,1.0,1.0,54,0.00,,,0.01,Wunderground v.1.15,2013-10-19 00:38:00,
2013-10-18 20:44:00,57.3,40.3,29.99,East,83,1.0,2.0,53,0.00,,,0.01,Wunderground v.1.15,2013-10-19 00:44:00,
2013-10-18 20:50:00,57.2,40.7,29.99,WSW,241,1.0,1.0,54,0.00,,,0.01,Wunderground v.1.15,2013-10-19 00:50:00,
2013-10-18 20:56:00,57.0,41.0,29.99,WNW,286,1.0,4.0,55,0.00,,,0.01,Wunderground v.1.15,2013-10-19 00:56:00,
2013-10-18 21:02:00,56.8,40.3,29.99,West,276,1.0,6.0,54,0.00,,,0.01,Wunderground v.1.15,2013-10-19 01:02:00,
2013-10-18 21:08:00,56.7,40.7,30.00,North,359,1.0,6.0,55,0.00,,,0.01,Wunderground v.1.15,2013-10-19 01:08:00,
2013-10-18 21:14:00,56.5,40.5,30.00,West,270,1.0,2.0,55,0.00,,,0.01,Wunderground v.1.15,2013-10-19 01:14:00,
2013-10-18 21:20:00,56.5,40.5,30.00,SW,214,1.0,1.0,55,0.00,,,0.01,Wunderground v.1.15,2013-10-19 01:20:00,
2013-10-18 21:26:00,56.5,40.5,30.00,SW,224,1.0,3.0,55,0.00,,,0.01,Wunderground v.1.15,2013-10-19 01:26:00,
2013-10-18 21:32:00,56.4,40.9,30.01,WSW,257,1.0,2.0,56,0.00,,,0.01,Wunderground v.1.15,2013-10-19 01:32:00,
2013-10-18 21:38:00,56.1,40.6,30.01,SW,222,0.0,2.0,56,0.00,,,0.01,Wunderground v.1.15,2013-10-19 01:38:00,
2013-10-18 21:44:00,55.9,40.4,30.00,SW,219,0.0,1.0,56,0.00,,,0.01,Wunderground v.1.15,2013-10-19 01:44:00,
2013-10-18 21:50:00,55.5,40.0,30.01,NE,34,0.0,0.0,56,0.00,,,0.01,Wunderground v.1.15,2013-10-19 01:50:00,
2013-10-18 21:56:00,55.2,40.2,30.01,SE,142,0.0,1.0,57,0.00,,,0.01,Wunderground v.1.15,2013-10-19 01:56:00,
2013-10-18 22:02:00,54.7,40.6,30.01,ESE,120,1.0,6.0,59,0.00,,,0.01,Wunderground v.1.15,2013-10-19 02:02:00,
2013-10-18 22:08:00,54.8,40.3,30.01,NNW,340,1.0,6.0,58,0.00,,,0.01,Wunderground v.1.15,2013-10-19 02:08:00,
2013-10-18 22:14:00,54.6,41.8,30.01,ESE,122,1.0,2.0,62,0.00,,,0.01,Wunderground v.1.15,2013-10-19 02:14:00,
2013-10-18 22:20:00,54.4,40.8,30.01,SSW,197,1.0,1.0,60,0.00,,,0.01,Wunderground v.1.15,2013-10-19 02:20:00,
2013-10-18 22:26:00,54.1,41.4,30.01,East,89,1.0,1.0,62,0.00,,,0.01,Wunderground v.1.15,2013-10-19 02:26:00,
2013-10-18 22:32:00,53.5,41.2,30.01,ESE,106,1.0,1.0,63,0.00,,,0.01,Wunderground v.1.15,2013-10-19 02:32:00,
2013-10-18 22:38:00,53.4,41.1,30.01,SE,140,1.0,1.0,63,0.00,,,0.01,Wunderground v.1.15,2013-10-19 02:38:00,
2013-10-18 22:44:00,53.2,40.5,30.01,South,186,1.0,2.0,62,0.00,,,0.01,Wunderground v.1.15,2013-10-19 02:44:00,
2013-10-18 22:50:00,53.2,41.3,30.01,SW,228,1.0,2.0,64,0.00,,,0.01,Wunderground v.1.15,2013-10-19 02:50:00,
2013-10-18 22:56:00,53.9,41.2,30.01,SE,131,1.0,2.0,62,0.00,,,0.01,Wunderground v.1.15,2013-10-19 02:56:00,
2013-10-18 23:02:00,53.4,41.1,30.02,SE,131,0.0,4.0,63,0.00,,,0.01,Wunderground v.1.15,2013-10-19 03:02:00,
2013-10-18 23:08:00,52.9,41.0,30.02,SE,131,0.0,4.0,64,0.00,,,0.01,Wunderground v.1.15,2013-10-19 03:08:00,
2013-10-18 23:14:00,52.6,40.8,30.02,SE,130,0.0,1.0,64,0.00,,,0.01,Wunderground v.1.15,2013-10-19 03:14:00,
2013-10-18 23:20:00,52.5,41.1,30.02,SE,137,1.0,1.0,65,0.00,,,0.01,Wunderground v.1.15,2013-10-19 03:20:00,
2013-10-18 23:26:00,52.5,40.7,30.02,SE,146,0.0,1.0,64,0.00,,,0.01,Wunderground v.1.15,2013-10-19 03:26:00,
2013-10-18 23:32:00,52.4,40.6,30.02,SE,146,0.0,0.0,64,0.00,,,0.01,Wunderground v.1.15,2013-10-19 03:32:00,
2013-10-18 23:38:00,52.4,41.0,30.02,SSE,158,0.0,1.0,65,0.00,,,0.01,Wunderground v.1.15,2013-10-19 03:38:00,
2013-10-18 23:44:00,52.5,40.3,30.03,ESE,117,0.0,1.0,63,0.00,,,0.01,Wunderground v.1.15,2013-10-19 03:44:00,
2013-10-18 23:50:00,52.6,40.4,30.03,SSW,210,0.0,0.0,63,0.00,,,0.01,Wunderground v.1.15,2013-10-19 03:50:00,
2013-10-18 23:56:00,52.8,40.5,30.03,SSE,148,1.0,1.0,63,0.00,,,0.01,Wunderground v.1.15,2013-10-19 03:56:00,